TimeMDT,TemperatureF,Dew PointF,Humidity,Sea Level PressureIn,VisibilityMPH,Wind Direction,Wind SpeedMPH,Gust SpeedMPH,PrecipitationIn,Events,Conditions,WindDirDegrees,DateUTC
12:53 AM,57.9,53.1,84,30.14,10.0,Calm,Calm,-,N/A,,Overcast,0,2013-09-11 06:53:00
1:53 AM,59.0,54.0,83,30.15,10.0,Calm,Calm,-,N/A,,Clear,0,2013-09-11 07:53:00
2:53 AM,59.0,54.0,83,30.15,10.0,Calm,Calm,-,N/A,,Overcast,0,2013-09-11 08:53:00
3:53 AM,59.0,55.0,87,30.15,10.0,Calm,Calm,-,N/A,,Scattered Clouds,0,2013-09-11 09:53:00
4:53 AM,57.9,55.0,90,30.15,10.0,Calm,Calm,-,N/A,,Mostly Cloudy,0,2013-09-11 10:53:00
5:53 AM,59.0,55.9,90,30.15,10.0,SSE,4.6,-,N/A,,Overcast,150,2013-09-11 11:53:00
6:53 AM,60.1,54.0,80,30.18,10.0,Calm,Calm,-,N/A,,Mostly Cloudy,0,2013-09-11 12:53:00
7:53 AM,63.0,55.0,75,30.19,10.0,Calm,Calm,-,N/A,,Partly Cloudy,0,2013-09-11 13:53:00
8:53 AM,64.9,57.0,75,30.20,10.0,NW,3.5,-,N/A,,Clear,310,2013-09-11 14:53:00
9:53 AM,69.1,55.9,63,30.20,10.0,NNW,3.5,-,N/A,,Mostly Cloudy,330,2013-09-11 15:53:00
10:53 AM,75.0,57.9,55,30.20,10.0,Variable,4.6,-,N/A,,Mostly Cloudy,0,2013-09-11 16:53:00
11:53 AM,75.9,57.0,52,30.19,10.0,Calm,Calm,-,N/A,,Mostly Cloudy,0,2013-09-11 17:53:00
12:53 PM,77.0,57.0,50,30.18,10.0,NW,5.8,-,N/A,,Overcast,320,2013-09-11 18:53:00
1:53 PM,75.9,55.9,50,30.17,10.0,West,5.8,-,N/A,,Partly Cloudy,260,2013-09-11 19:53:00
2:53 PM,77.0,55.9,48,30.17,10.0,Variable,3.5,-,N/A,,Clear,0,2013-09-11 20:53:00
3:53 PM,75.9,55.9,50,30.16,10.0,West,3.5,-,N/A,,Overcast,280,2013-09-11 21:53:00
4:53 PM,75.0,57.0,53,30.17,10.0,West,3.5,-,N/A,,Overcast,270,2013-09-11 22:53:00
5:53 PM,73.9,55.9,53,30.16,10.0,West,4.6,-,N/A,,Overcast,270,2013-09-11 23:53:00
6:53 PM,72.0,57.0,59,30.17,10.0,WSW,3.5,-,N/A,,Overcast,240,2013-09-12 00:53:00
7:53 PM,69.1,57.9,68,30.19,10.0,WSW,4.6,-,N/A,,Scattered Clouds,240,2013-09-12 01:53:00
8:53 PM,66.0,57.9,75,30.21,10.0,Calm,Calm,-,N/A,,Partly Cloudy,0,2013-09-12 02:53:00
9:53 PM,64.9,57.0,75,30.21,10.0,Calm,Calm,-,N/A,,Overcast,0,2013-09-12 03:53:00
10:53 PM,61.0,55.9,83,30.21,10.0,Calm,Calm,-,N/A,,Clear,0,2013-09-12 04:53:00
11:53 PM,59.0,55.0,87,30.21,10.0,SSW,3.5,-,N/A,,Clear,210,2013-09-12 05:53:00